Antalya, Turkey

7:08 AM +03 on May 30, 2017 (GMT +0300)
Antalya

Weather History for LTAI - September, 2013

Change the Weather History Date:

Monday, September 16, 2013

  Actual Average Record
Temperature  
Mean Temperature 76 °F -  
Max Temperature 84 °F 83 °F 95 °F (1997)
Min Temperature 68 °F 62 °F 57 °F (2004)
Cooling Degree Days 11    
Growing Degree Days 26 (Base 50)    
Moisture  
Dew Point 56 °F    
Average Humidity 51    
Maximum Humidity 83    
Minimum Humidity 13    
Precipitation  
Precipitation 0.00 in 0.06 in - ()
Sea Level Pressure  
Sea Level Pressure 29.75 in    
Wind  
Wind Speed 7 mph ()    
Max Wind Speed 10 mph    
Max Gust Speed -    
Visibility 6.2 miles    
Events      
Averages and records for this station are not official NWS values.
T = Trace of Precipitation, MM = Missing Value Source: Averaged Metar Reports

Daily Weather History Graph

Daily Weather History Graph

Search for Another Location

Airport or City:

Trip Planner

Search our weather history database for the weather conditions in past years. The results will help you decide how hot, cold, wet, or windy it might be!

Date:

Astronomy

Sep. 16, 2013 Rise Set
Actual Time 6:40 AM EEST 7:03 PM EEST
Civil Twilight 6:14 AM EEST 7:29 PM EEST
Nautical Twilight 5:43 AM EEST 7:59 PM EEST
Astronomical Twilight 5:12 AM EEST 8:30 PM EEST
Moon 4:55 PM EEST (9/16) 3:07 AM EEST (9/16)
Length of Visible Light 13h 15m
Length of Day
12h 23m
Waxing Gibbous, 88% of the Moon is Illuminated
Sep 16
Waxing Gibbous
Sep 19
Full
Sep 27
Last Quarter
Oct 5
New
Oct 12
First Quarter

Hourly Weather History & Observations

Time (EEST) Temp. Heat Index Dew Point Humidity Pressure Visibility Wind Dir Wind Speed Gust Speed Precip Events Conditions
12:20 AM 73.4 °F - 57.2 °F 57% 29.77 in - NNW 8.1 mph - N/A   Clear
12:50 AM 73.4 °F - 50.0 °F 44% 29.74 in - WNW 6.9 mph - N/A   Clear
1:20 AM 71.6 °F - 48.2 °F 43% 29.77 in - North 4.6 mph - N/A   Clear
1:50 AM 71.6 °F - 42.8 °F 35% 29.77 in - NNW 8.1 mph - N/A   Clear
2:20 AM 71.6 °F - 41.0 °F 33% 29.77 in - NNW 9.2 mph - N/A   Clear
2:50 AM 71.6 °F - 39.2 °F 31% 29.77 in - NNW 8.1 mph - N/A   Clear
3:20 AM 73.4 °F - 37.4 °F 27% 29.74 in - NW 8.1 mph - N/A   Clear
3:50 AM 75.2 °F - 37.4 °F 25% 29.74 in - NW 10.4 mph - N/A   Clear
4:20 AM 71.6 °F - 37.4 °F 29% 29.74 in - NNW 6.9 mph - N/A   Clear
4:50 AM 69.8 °F - 37.4 °F 31% 29.74 in - NNW 6.9 mph - N/A   Clear
5:20 AM 71.6 °F - 39.2 °F 31% 29.74 in - North 4.6 mph - N/A   Clear
5:50 AM 69.8 °F - 37.4 °F 31% 29.74 in - NNW 9.2 mph - N/A   Clear
6:20 AM 71.6 °F - 37.4 °F 29% 29.74 in - North 6.9 mph - N/A   Clear
6:50 AM 69.8 °F - 37.4 °F 31% 29.74 in - North 5.8 mph - N/A   Clear
7:20 AM 73.4 °F - 37.4 °F 27% 29.77 in - North 9.2 mph - N/A   Clear
7:50 AM 75.2 °F - 37.4 °F 25% 29.77 in - NNW 6.9 mph - N/A   Clear
8:20 AM 77.0 °F - 37.4 °F 24% 29.77 in - NNW 10.4 mph - N/A   Clear
8:50 AM 78.8 °F - 39.2 °F 24% 29.77 in - North 10.4 mph - N/A   Clear
9:00 AM 79 °F - 38 °F 13% 29.76 in 6 mi North 10.4 mph - -  
9:20 AM 80.6 °F - 37.4 °F 21% 29.77 in - North 8.1 mph - N/A   Clear
9:50 AM 82.4 °F - 39.2 °F 21% 29.77 in - North 6.9 mph - N/A   Clear
10:20 AM 84.2 °F - 39.2 °F 20% 29.80 in - Variable 4.6 mph - N/A   Clear
10:50 AM 84.2 °F - 48.2 °F 29% 29.80 in - Variable 6.9 mph - N/A   Clear
11:20 AM 84.2 °F 86.6 °F 66.2 °F 55% 29.80 in - SE 6.9 mph - N/A   Clear
11:50 AM 84.2 °F 87.3 °F 68.0 °F 58% 29.80 in - SSE 8.1 mph - N/A   Clear
12:20 PM 84.2 °F 87.3 °F 68.0 °F 58% 29.77 in 6.2 mi SE 8.1 mph - N/A   Partly Cloudy
12:50 PM 84.2 °F 87.3 °F 68.0 °F 58% 29.77 in 6.2 mi SSE 9.2 mph - N/A   Partly Cloudy
1:20 PM 82.4 °F 86.3 °F 69.8 °F 66% 29.77 in 6.2 mi SSE 9.2 mph - N/A   Partly Cloudy
1:50 PM 82.4 °F 86.3 °F 69.8 °F 66% 29.77 in 6.2 mi SSE 10.4 mph - N/A   Scattered Clouds
2:20 PM 84.2 °F 88.4 °F 69.8 °F 62% 29.77 in 6.2 mi SSE 9.2 mph - N/A   Mostly Cloudy
2:50 PM 82.4 °F 86.3 °F 69.8 °F 66% 29.77 in 6.2 mi Variable 9.2 mph - N/A   Mostly Cloudy
3:00 PM 82 °F - 69 °F 57% 29.75 in 6 mi SE 9.2 mph - -   Mostly Cloudy
3:20 PM 82.4 °F 86.3 °F 69.8 °F 66% 29.74 in 6.2 mi Variable 6.9 mph - N/A   Mostly Cloudy
3:50 PM 82.4 °F 86.3 °F 69.8 °F 66% 29.74 in 6.2 mi South 10.4 mph - N/A   Mostly Cloudy
4:20 PM 80.6 °F 83.9 °F 69.8 °F 70% 29.74 in 6.2 mi SSE 8.1 mph - N/A   Mostly Cloudy
4:50 PM 80.6 °F 83.9 °F 69.8 °F 70% 29.74 in 6.2 mi SSE 9.2 mph - N/A   Mostly Cloudy
5:20 PM 80.6 °F 83.2 °F 68.0 °F 65% 29.74 in 6.2 mi SSE 6.9 mph - N/A   Mostly Cloudy
5:50 PM 80.6 °F 83.9 °F 69.8 °F 70% 29.74 in 6.2 mi SE 6.9 mph - N/A   Mostly Cloudy
6:20 PM 78.8 °F - 68.0 °F 69% 29.74 in 6.2 mi SSE 5.8 mph - N/A   Mostly Cloudy
6:50 PM 78.8 °F - 69.8 °F 74% 29.71 in 6.2 mi SE 3.5 mph - N/A   Mostly Cloudy
7:20 PM 77.0 °F - 68.0 °F 74% 29.71 in 6.2 mi Variable 2.3 mph - N/A   Mostly Cloudy
7:50 PM 77.0 °F - 68.0 °F 74% 29.74 in 6.2 mi SSE 2.3 mph - N/A   Scattered Clouds
8:20 PM 75.2 °F - 68.0 °F 78% 29.74 in 6.2 mi Calm Calm - N/A   Scattered Clouds
8:50 PM 75.2 °F - 68.0 °F 78% 29.74 in 6.2 mi East 3.5 mph - N/A   Scattered Clouds
9:20 PM 73.4 °F - 68.0 °F 83% 29.74 in 6.2 mi East 3.5 mph - N/A   Scattered Clouds
9:50 PM 73.4 °F - 68.0 °F 83% 29.71 in 6.2 mi ENE 2.3 mph - N/A   Scattered Clouds
10:20 PM 73.4 °F - 68.0 °F 83% 29.74 in 6.2 mi Variable 2.3 mph - N/A   Scattered Clouds
10:50 PM 73.4 °F - 68.0 °F 83% 29.71 in 6.2 mi NE 4.6 mph - N/A   Scattered Clouds
11:20 PM 73.4 °F - 66.2 °F 78% 29.71 in 6.2 mi Variable 2.3 mph - N/A   Scattered Clouds
11:50 PM 73.4 °F - 66.2 °F 78% 29.71 in 6.2 mi NE 4.6 mph - N/A   Scattered Clouds